Starlink 31623

operational
NORAD ID: 59272 Int'l Des: 2024-050 Owner: SPXS Country: US Constellation: starlink
LEOCIRCULAR

Starlink 31623について

説明を読み込み中...

リアルタイム位置

3D地球を読み込み中...

次回通過

高度履歴

Altitude vs Time

uPlot chart will show altitude changes over time

軌道要素

1 59272U 24050U 25307.63403594 .00000527 00000-0 29929-4 0 9996
2 59272 53.1607 46.1789 0001492 85.0023 275.1148 15.30195341 91255
Epoch: Nov 3, 2025 • Age: 15 hours

現在のステータス

高度 494.4 km
速度 7.62 km/s
衛星直下点 -52.19°S, 156.38°E
打ち上げ日 Mar 19, 2024
運用期間 1.6 years
タイプ internet

技術仕様

分類 Payload
質量 730.00 kg
乾燥質量 700.00 kg
総質量 730.00 kg
長さ 0.30 m
直径 4.10 m
スパン 29.00 m
形状 Box + pan
製造者 SPXS
バスタイプ Starlink V2M
フェーズステータス In Orbit
所有者/国 SPXS/US

大規模コンステレーション

Loading constellations...